Weather History for Jackson, TN

Change the Weather History Date:

Thursday, January 10, 2013

  Actual Average Record
Temperature  
Mean Temperature 61 °F 38 °F  
Max Temperature 69 °F 48 °F 73 °F (1949)
Min Temperature 53 °F 28 °F -3 °F (1982)
Degree Days  
Heating Degree Days 4 27  
Month to date heating degree days 254 270  
Since 1 July heating degree days 1616 1688  
Cooling Degree Days 0 0  
Month to date cooling degree days 0 0  
Year to date cooling degree days 0 0  
Growing Degree Days 11 (Base 50)    
Moisture  
Dew Point 59 °F    
Average Humidity 87    
Maximum Humidity 100    
Minimum Humidity 73    
Precipitation  
Precipitation 1.28 in 0.12 in 3.45 in (1974)
Month to date precipitation 1.86 1.32  
Year to date precipitation 1.86 1.32  
Snow  
Snow 0.00 in 0.10 in 3.00 in (1997)
Month to date snowfall 0.0 0.7  
Since 1 July snowfall 0.5 1.0  
Snow Depth 0.00 in    
Sea Level Pressure  
Sea Level Pressure 30.10 in    
Wind  
Wind Speed 9 mph (SSE)    
Max Wind Speed 20 mph    
Max Gust Speed 31 mph    
Visibility 6 miles    
Events Rain    
T = Trace of Precipitation, MM = Missing Value Source: NWS Daily Summary

Daily Weather History Graph

Daily Weather History Graph

Search for Another Location

Airport:

Trip Planner

Search our weather history database for the weather conditions in past years. The results will help you decide how hot, cold, wet, or windy it might be!

Date:

Astronomy

Jan. 10, 2013 Rise Set
Actual Time 7:05 AM CST 5:01 PM CST
Civil Twilight 6:37 AM CST 5:29 PM CST
Nautical Twilight 6:06 AM CST 6:00 PM CST
Astronomical Twilight 5:35 AM CST 6:31 PM CST
Moon 5:45 AM CST (1/10) 4:08 PM CST (1/10)
Length of Visible Light 10h 51m
Length of Day
9h 55m
Waning Crescent, 2% of the Moon is Illuminated
Jan 10
Waning Crescent
Jan 11
New
Jan 18
First Quarter
Jan 26
Full
Feb 3
Last Quarter

Hourly Weather History & Observations

Time (CST) Temp. Dew Point Humidity Pressure Visibility Wind Dir Wind Speed Gust Speed Precip Events Conditions
12:07 AM 53.6 °F 51.8 °F 94% 30.35 in 2.5 mi ENE 9.2 mph - N/A Rain Heavy Rain
12:16 AM 53.6 °F 51.8 °F 94% 30.34 in 4.0 mi ENE 11.5 mph - N/A Rain Rain
12:33 AM 53.6 °F 51.8 °F 94% 30.34 in 5.0 mi ENE 9.2 mph - N/A Rain Light Rain
12:53 AM 53.1 °F 51.1 °F 93% 30.34 in 7.0 mi East 6.9 mph - N/A Rain Light Rain
1:53 AM 53.1 °F 52.0 °F 96% 30.32 in 8.0 mi East 8.1 mph - 0.02 in   Overcast
2:53 AM 53.1 °F 52.0 °F 96% 30.30 in 10.0 mi East 9.2 mph - 0.03 in   Overcast
3:53 AM 54.0 °F 52.0 °F 93% 30.26 in 6.0 mi East 11.5 mph - 0.05 in   Overcast
4:53 AM 54.0 °F 53.1 °F 97% 30.23 in 4.0 mi East 9.2 mph - 0.05 in Rain Light Rain
5:53 AM 55.0 °F 54.0 °F 96% 30.22 in 4.0 mi ESE 5.8 mph - 0.04 in   Overcast
6:53 AM 55.0 °F 54.0 °F 96% 30.22 in 2.5 mi ESE 5.8 mph - 0.04 in   Overcast
7:42 AM 57.2 °F 55.4 °F 94% 30.23 in 1.8 mi ESE 4.6 mph - 0.03 in   Overcast
7:53 AM 57.0 °F 55.9 °F 96% 30.23 in 1.8 mi ESE 5.8 mph - 0.04 in   Overcast
8:53 AM 57.9 °F 57.0 °F 97% 30.23 in 1.8 mi SE 4.6 mph - 0.03 in   Overcast
9:12 AM 59.0 °F 57.2 °F 94% 30.23 in 1.2 mi SE 6.9 mph - 0.01 in Rain Light Rain
9:45 AM 59.0 °F 57.2 °F 94% 30.23 in 1.8 mi Calm Calm - 0.03 in   Overcast
9:53 AM 59.0 °F 57.9 °F 96% 30.23 in 1.8 mi Variable 3.5 mph - 0.03 in Rain Light Rain
10:53 AM 60.1 °F 59.0 °F 96% 30.19 in 1.8 mi Calm Calm - 0.01 in Rain Light Rain
11:04 AM 60.8 °F 59.0 °F 94% 30.19 in 2.0 mi ESE 4.6 mph - 0.37 in   Overcast
11:53 AM 62.1 °F 60.1 °F 93% 30.17 in 2.0 mi SSE 5.8 mph - 0.37 in   Overcast
12:24 PM 62.6 °F 60.8 °F 94% 30.15 in 1.0 mi SSE 4.6 mph - N/A   Overcast
12:53 PM 62.1 °F 61.0 °F 96% 30.13 in 1.0 mi SE 6.9 mph - N/A   Overcast
1:53 PM 63.0 °F 61.0 °F 93% 30.10 in 1.0 mi SSE 4.6 mph - 0.00 in   Overcast
2:00 PM 62.6 °F 60.8 °F 94% 30.08 in 5.0 mi SE 8.1 mph 16.1 mph 0.00 in Rain Light Rain
2:20 PM 64.4 °F 62.6 °F 94% 30.06 in 10.0 mi Variable 6.9 mph - 0.00 in   Overcast
2:53 PM 64.9 °F 62.1 °F 90% 30.04 in 10.0 mi SE 9.2 mph 20.7 mph 0.00 in   Overcast
3:10 PM 66.2 °F 62.6 °F 88% 30.04 in 10.0 mi South 11.5 mph 19.6 mph N/A   Overcast
3:53 PM 66.9 °F 62.1 °F 84% 30.02 in 10.0 mi SSE 16.1 mph 29.9 mph N/A   Mostly Cloudy
4:08 PM 66.2 °F 62.6 °F 88% 30.02 in 10.0 mi SSE 16.1 mph 26.5 mph 0.01 in   Scattered Clouds
4:20 PM 66.2 °F 62.6 °F 88% 30.01 in 10.0 mi SSE 16.1 mph 26.5 mph 0.01 in   Mostly Cloudy
4:53 PM 66.9 °F 62.1 °F 84% 29.96 in 10.0 mi SE 13.8 mph 25.3 mph 0.01 in   Mostly Cloudy
5:53 PM 66.9 °F 62.1 °F 84% 29.94 in 10.0 mi SSE 15.0 mph 27.6 mph N/A   Overcast
6:53 PM 66.9 °F 62.1 °F 84% 29.92 in 10.0 mi SSE 15.0 mph 23.0 mph N/A   Overcast
7:36 PM 69.8 °F 62.6 °F 78% 29.94 in 10.0 mi South 12.7 mph 21.9 mph N/A   Overcast
7:49 PM 69.8 °F 60.8 °F 73% 29.95 in 10.0 mi South 12.7 mph 17.3 mph N/A   Overcast
7:53 PM 69.1 °F 61.0 °F 75% 29.95 in 10.0 mi South 10.4 mph 18.4 mph N/A   Overcast
8:23 PM 69.8 °F 62.6 °F 78% 29.96 in 10.0 mi South 12.7 mph 18.4 mph N/A   Overcast
8:38 PM 69.8 °F 62.6 °F 78% 29.97 in 10.0 mi South 11.5 mph 20.7 mph N/A   Overcast
8:53 PM 69.1 °F 62.1 °F 78% 29.96 in 10.0 mi South 11.5 mph 18.4 mph N/A   Overcast
9:29 PM 68.0 °F 62.6 °F 83% 29.95 in 10.0 mi South 13.8 mph 19.6 mph 0.00 in Rain Light Rain
9:53 PM 66.0 °F 63.0 °F 90% 29.94 in 6.0 mi South 10.4 mph 16.1 mph 0.02 in Rain Light Rain
10:13 PM 66.2 °F 62.6 °F 88% 29.94 in 10.0 mi South 9.2 mph - 0.00 in Rain Light Rain
11:03 PM 64.4 °F 62.6 °F 94% 29.93 in 2.5 mi WSW 15.0 mph 18.4 mph 0.12 in Rain Heavy Rain
11:10 PM 64.4 °F 62.6 °F 94% 29.93 in 1.0 mi SSW 12.7 mph - 0.35 in Rain Heavy Rain
11:22 PM 64.4 °F 62.6 °F 94% 29.93 in 3.0 mi SW 18.4 mph 24.2 mph 0.48 in Rain Light Rain
11:53 PM 64.9 °F 62.1 °F 90% 29.93 in 10.0 mi SSW 12.7 mph 24.2 mph 0.49 in Rain Light Rain